Time,TemperatureF,DewpointF,PressureIn,WindDirection,WindDirectionDegrees,WindSpeedMPH,WindSpeedGustMPH,Humidity,HourlyPrecipIn,Conditions,Clouds,dailyrainin,SolarRadiationWatts/m^2,SoftwareType,DateUTC
2013-08-01 00:22:00,51.0,38.0,-100.00,ENE,70,6.0,8.0,61,0.00,,,0.00,0.000000,,2013-08-01 06:22:00,
2013-08-01 00:33:00,51.0,38.0,-100.00,ENE,70,6.0,8.0,61,0.00,,,0.00,0.000000,,2013-08-01 06:33:00,
2013-08-01 00:42:00,51.0,38.0,-100.00,ENE,70,6.0,8.0,61,0.00,,,0.00,0.000000,,2013-08-01 06:42:00,
2013-08-01 00:52:00,51.0,38.0,-100.00,ENE,70,6.0,8.0,61,0.00,,,0.00,0.000000,,2013-08-01 06:52:00,
2013-08-01 01:23:00,52.0,38.0,-100.00,ENE,77,7.0,10.0,58,0.00,,,0.00,0.000000,,2013-08-01 07:23:00,
2013-08-01 01:32:00,52.0,38.0,-100.00,ENE,77,7.0,10.0,58,0.00,,,0.00,0.000000,,2013-08-01 07:32:00,
2013-08-01 01:43:00,52.0,38.0,-100.00,ENE,77,7.0,10.0,58,0.00,,,0.00,0.000000,,2013-08-01 07:43:00,
2013-08-01 01:53:00,52.0,38.0,-100.00,ENE,77,7.0,10.0,58,0.00,,,0.00,0.000000,,2013-08-01 07:53:00,
2013-08-01 02:44:00,49.0,37.0,-100.00,East,80,6.0,10.0,64,0.00,,,0.00,0.000000,,2013-08-01 08:44:00,
2013-08-01 02:56:00,49.0,37.0,-100.00,East,83,6.0,10.0,62,0.00,,,0.00,0.000000,,2013-08-01 08:56:00,
2013-08-01 03:49:00,49.0,37.0,-100.00,East,83,6.0,10.0,62,0.00,,,0.00,0.000000,,2013-08-01 09:49:00,
2013-08-01 04:28:00,47.0,36.0,-100.00,ENE,75,7.0,10.0,66,0.00,,,0.00,0.000000,,2013-08-01 10:28:00,
2013-08-01 04:40:00,47.0,36.0,-100.00,ENE,75,7.0,10.0,66,0.00,,,0.00,0.000000,,2013-08-01 10:40:00,
2013-08-01 05:33:00,50.0,36.0,-100.00,ENE,77,7.0,11.0,58,0.00,,,0.00,0.000000,,2013-08-01 11:33:00,
2013-08-01 05:41:00,50.0,36.0,-100.00,ENE,77,7.0,11.0,58,0.00,,,0.00,0.000000,,2013-08-01 11:41:00,
2013-08-01 05:48:00,50.0,36.0,-100.00,ENE,77,7.0,11.0,58,0.00,,,0.00,0.000000,,2013-08-01 11:48:00,
2013-08-01 06:37:00,49.0,36.0,-100.00,ENE,71,9.0,12.0,61,0.00,,,0.00,0.000000,,2013-08-01 12:37:00,
2013-08-01 06:45:00,49.0,36.0,-100.00,ENE,71,9.0,12.0,61,0.00,,,0.00,0.000000,,2013-08-01 12:45:00,
2013-08-01 06:56:00,50.0,37.0,-100.00,ENE,75,9.0,13.0,60,0.00,,,0.00,10.000000,,2013-08-01 12:56:00,
2013-08-01 07:31:00,50.0,37.0,-100.00,ENE,75,9.0,13.0,60,0.00,,,0.00,10.000000,,2013-08-01 13:31:00,
2013-08-01 07:41:00,50.0,37.0,-100.00,ENE,75,9.0,13.0,60,0.00,,,0.00,10.000000,,2013-08-01 13:41:00,
2013-08-01 10:56:00,70.0,44.0,-100.00,West,260,7.0,10.0,39,-99.99,,,0.00,611.000000,,2013-08-01 16:56:00,
2013-08-01 11:31:00,70.0,44.0,-100.00,West,260,7.0,10.0,39,-99.99,,,0.00,611.000000,,2013-08-01 17:31:00,
2013-08-01 11:42:00,70.0,44.0,-100.00,West,260,7.0,10.0,39,-99.99,,,0.00,611.000000,,2013-08-01 17:42:00,
2013-08-01 12:31:00,66.0,39.0,-100.00,West,259,10.0,21.0,37,0.00,,,0.00,527.000000,,2013-08-01 18:31:00,
2013-08-01 12:40:00,66.0,39.0,-100.00,West,259,10.0,21.0,37,0.00,,,0.00,527.000000,,2013-08-01 18:40:00,
2013-08-01 12:54:00,66.0,39.0,-100.00,West,259,10.0,21.0,37,0.00,,,0.00,527.000000,,2013-08-01 18:54:00,
2013-08-01 13:39:00,66.0,42.0,-100.00,West,259,11.0,18.0,41,0.00,,,0.00,553.000000,,2013-08-01 19:39:00,
2013-08-01 14:37:00,65.0,43.0,-100.00,West,270,11.0,19.0,44,0.00,,,0.00,413.000000,,2013-08-01 20:37:00,
2013-08-01 14:47:00,65.0,43.0,-100.00,West,270,11.0,19.0,44,0.00,,,0.00,413.000000,,2013-08-01 20:47:00,
2013-08-01 15:26:00,63.0,45.0,-100.00,WSW,254,7.0,17.0,51,0.00,,,0.00,280.000000,,2013-08-01 21:26:00,
2013-08-01 15:34:00,63.0,45.0,-100.00,WSW,254,7.0,17.0,51,0.00,,,0.00,280.000000,,2013-08-01 21:34:00,
2013-08-01 15:43:00,63.0,45.0,-100.00,WSW,254,7.0,17.0,51,0.00,,,0.00,280.000000,,2013-08-01 21:43:00,
2013-08-01 15:53:00,63.0,45.0,-100.00,WSW,254,7.0,17.0,51,0.00,,,0.00,280.000000,,2013-08-01 21:53:00,
2013-08-01 16:23:00,63.0,45.0,-100.00,South,180,4.0,10.0,51,0.00,,,0.00,234.000000,,2013-08-01 22:23:00,
2013-08-01 16:35:00,63.0,45.0,-100.00,South,180,4.0,10.0,51,0.00,,,0.00,234.000000,,2013-08-01 22:35:00,
2013-08-01 16:46:00,63.0,45.0,-100.00,South,180,4.0,10.0,51,0.00,,,0.00,234.000000,,2013-08-01 22:46:00,
2013-08-01 16:54:00,63.0,45.0,-100.00,South,180,4.0,10.0,51,0.00,,,0.00,234.000000,,2013-08-01 22:54:00,
2013-08-01 17:25:00,60.0,45.0,-100.00,ESE,119,6.0,13.0,57,0.00,,,0.00,236.000000,,2013-08-01 23:25:00,
2013-08-01 17:33:00,60.0,45.0,-100.00,ESE,119,6.0,13.0,57,0.00,,,0.00,236.000000,,2013-08-01 23:33:00,
2013-08-01 17:47:00,60.0,45.0,-100.00,ESE,119,6.0,13.0,57,0.00,,,0.00,236.000000,,2013-08-01 23:47:00,
2013-08-01 17:55:00,60.0,45.0,-100.00,ESE,119,6.0,13.0,57,0.00,,,0.00,236.000000,,2013-08-01 23:55:00,
2013-08-01 18:27:00,62.0,44.0,-100.00,East,91,4.0,13.0,51,0.00,,,0.00,249.000000,,2013-08-02 00:27:00,
2013-08-01 18:37:00,62.0,44.0,-100.00,East,91,4.0,13.0,51,0.00,,,0.00,249.000000,,2013-08-02 00:37:00,
2013-08-01 18:55:00,62.0,44.0,-100.00,East,91,4.0,13.0,51,0.00,,,0.00,249.000000,,2013-08-02 00:55:00,
2013-08-01 19:27:00,60.0,42.0,-100.00,West,271,11.0,17.0,51,0.00,,,0.00,135.000000,,2013-08-02 01:27:00,
2013-08-01 19:37:00,60.0,42.0,-100.00,West,271,11.0,17.0,51,0.00,,,0.00,135.000000,,2013-08-02 01:37:00,
2013-08-01 19:46:00,60.0,42.0,-100.00,West,271,11.0,17.0,51,0.00,,,0.00,135.000000,,2013-08-02 01:46:00,
2013-08-01 19:55:00,60.0,42.0,-100.00,West,271,11.0,17.0,51,0.00,,,0.00,135.000000,,2013-08-02 01:55:00,
2013-08-01 20:27:00,56.0,43.0,-100.00,West,271,8.0,16.0,61,0.00,,,0.00,61.000000,,2013-08-02 02:27:00,
2013-08-01 20:34:00,56.0,43.0,-100.00,West,271,8.0,16.0,61,0.00,,,0.00,61.000000,,2013-08-02 02:34:00,
2013-08-01 20:45:00,56.0,43.0,-100.00,West,271,8.0,16.0,61,0.00,,,0.00,61.000000,,2013-08-02 02:45:00,
2013-08-01 20:52:00,56.0,43.0,-100.00,West,271,8.0,16.0,61,0.00,,,0.00,61.000000,,2013-08-02 02:52:00,
2013-08-01 21:23:00,51.0,43.0,-100.00,North,5,3.0,9.0,73,0.00,,,0.00,5.000000,,2013-08-02 03:23:00,
2013-08-01 21:47:00,51.0,43.0,-100.00,North,5,3.0,9.0,73,0.00,,,0.00,5.000000,,2013-08-02 03:47:00,
2013-08-01 21:55:00,51.0,43.0,-100.00,North,5,3.0,9.0,73,0.00,,,0.00,5.000000,,2013-08-02 03:55:00,
2013-08-01 22:22:00,51.0,43.0,-100.00,East,82,9.0,11.0,75,0.00,,,0.00,0.000000,,2013-08-02 04:22:00,
2013-08-01 22:33:00,51.0,43.0,-100.00,East,82,9.0,11.0,75,0.00,,,0.00,0.000000,,2013-08-02 04:33:00,
2013-08-01 22:43:00,51.0,43.0,-100.00,East,82,9.0,11.0,75,0.00,,,0.00,0.000000,,2013-08-02 04:43:00,
2013-08-01 22:53:00,51.0,43.0,-100.00,East,82,9.0,11.0,75,0.00,,,0.00,0.000000,,2013-08-02 04:53:00,
2013-08-01 23:22:00,49.0,42.0,-100.00,ENE,73,6.0,10.0,78,0.00,,,0.00,0.000000,,2013-08-02 05:22:00,
2013-08-01 23:32:00,49.0,42.0,-100.00,ENE,73,6.0,10.0,78,0.00,,,0.00,0.000000,,2013-08-02 05:32:00,
2013-08-01 23:43:00,49.0,42.0,-100.00,ENE,73,6.0,10.0,78,0.00,,,0.00,0.000000,,2013-08-02 05:43:00,
2013-08-01 23:53:00,49.0,42.0,-100.00,ENE,73,6.0,10.0,78,0.00,,,0.00,0.000000,,2013-08-02 05:53:00,